Regional Weather Roundup
Issued by NWS New Orleans/Baton Rouge, LA

Home | Current Version | Previous Version | Text Only | Print | Product List | Glossary Off
Versions: 1 2 3 4 5 6 7 8 9 10 11 12 13 14 15 16 17 18 19 20 21 22 23 24 25 26 27 28 29 30 31 32 33 34 35 36 37 38 39 40 41 42 43 44 45 46 47 48 49 50

721
ASUS44 KLIX 171901
RWRLIX
NEW ORLEANS REGIONAL WEATHER ROUNDUP
NATIONAL WEATHER SERVICE NEW ORLEANS LA
200 PM CDT THU APR 17 2014

NOTE: "FAIR" INDICATES FEW OR NO CLOUDS BELOW 12,000 FEET WITH NO
      SIGNIFICANT WEATHER AND/OR OBSTRUCTIONS TO VISIBILITY.
      SKY/WX - SKY CONDITION AND SIGNIFICANT WEATHER.
      TMP - AIR TEMPERATURE.     DP    - DEWPOINT TEMPERATURE.
      RH  - RELATIVE HUMIDITY.   PRES  - PRESSURE.
      HI  - HEAT INDEX.          WCI   - WIND CHILL INDEX.

*  THESE STATIONS ARE NOT NWS OR FAA STATIONS AND ARE NOT UNDER
   NWS QUALITY CONTROL.

LAZ038-040-048-061>063-065>067-069-172000-
SOUTHEAST LOUISIANA

CITY           SKY/WX    TMP DP  RH WIND       PRES   REMARKS
N.O. AUDUBON   NOT AVBL
N.O. INTL ARPT CLOUDY    65  59  81 E15G23    30.15F
N.O. LAKEFRONT LGT RAIN  62  60  93 E18       30.17F FOG
N.O. DOWNTOWN* CLOUDY    63  55  77 NE12G20   30.17F
SLIDELL        CLOUDY    64  57  78 E6        30.18F
BATON ROUGE    CLOUDY    66  54  65 NE12      30.15F
BOOTHVILLE     CLOUDY    66  62  87 E9G21     30.14F FOG
BELLE CHASSE   CLOUDY    64  59  83 NE12      30.16S FOG
BOGALUSA*        N/A     67  56  67 E5        30.20F
GALLIANO*      NOT AVBL
NEW ROADS*     NOT AVBL
GONZALES*        N/A     64  58  80 E5        30.15F
HAMMOND*       NOT AVBL
HOUMA*         CLOUDY    66  57  72 NE12      30.15F
PORT FOURCHON* PTCLDY    68  63  83 NE13      30.14F

$$

MSZ070-080>082-172000-
SOUTHERN MISSISSIPPI

CITY           SKY/WX    TMP DP  RH WIND       PRES   REMARKS
MCCOMB         CLOUDY    64  54  69 SE7       30.19F
GULFPORT       CLOUDY    67  57  70 SE10      30.18F
BILOXI         NOT AVBL
PASCAGOULA     CLOUDY    69  57  65 NE6       30.19F

$$

COASTAL OBSERVATIONS
LAKE AND NEARSHORE STATIONS

STATION/POSITION TIME  TEMP    WIND        PRES    WAVE
                       AIR SEA DIR/SP/G            HT/PER
                 (UTC) (F)     (DEG/KT/KT) (MB)    (FT/S)
PASCAGOULA       1800   68      70/ 13/ 16 1021.5
WAVELAND YACHT   1800   63 67  110/ 16/ 19 1021.7
GRAND ISLE       1800   68 67   40/  5/  8 1020.7
SOUTHWEST PASS   1800   70 58   70/ 13/ 14 1020.3
NEW CANAL        1800   62 63   70/ 18/ 21 1021.8
SHELL BEACH      1800   62 61   50/ 14/ 19 1021.6

OFFSHORE STATIONS

STATION/POSITION TIME  TEMP    WIND        PRES    WAVE
                       AIR SEA DIR/SP/G            HT/PER
                 (UTC) (F)     (DEG/KT/KT) (MB)    (FT/S)
64 S DAUPHIN ISL 1756   66 71   80/ 23/ 29 1020.7

$$




USA.gov is the U.S. government's official web portal to all federal, state and local government web resources and services.